LKKB Weather Reports


Display with metric or nautical units.
time (UTC)temp
F
wind
direction
speed
MPH
gust
MPH
rain 1hr
in
rain 24hr
in
rain mn
in
humidity
%
barometer
mb
20260902203103 63 0 0.0 0.0 0.00 0.00 0.00 77 1020.0
20260902201854 64 40 2.0 0.0 0.00 0.00 0.00 67
20260902200103 64 0 2.0 0.0 0.00 0.00 0.00 72 1020.0
20260902193103 66 0 1.0 0.0 0.00 0.00 0.00 68 1020.0
20260902192055 68 220 2.0 0.0 0.00 0.00 0.00 60
20260902190211 68 0 2.0 0.0 0.00 0.00 0.00 64 1020.0
20260902183102 70 0 1.0 0.0 0.00 0.00 0.00 56 1019.0
20260902181851 72 360 2.0 0.0 0.00 0.00 0.00 53
20260902180103 70 0 1.0 0.0 0.00 0.00 0.00 60 1019.0
20260902173102 72 0 1.0 0.0 0.00 0.00 0.00 49 1019.0
20260902172054 72 280 2.0 0.0 0.00 0.00 0.00 49
20260902163103 73 230 6.0 0.0 0.00 0.00 0.00 49 1019.0
20260902162254 75 250 5.0 0.0 0.00 0.00 0.00 41
20260902153103 75 220 5.0 0.0 0.00 0.00 0.00 41 1019.0
20260902151850 75 210 2.0 0.0 0.00 0.00 0.00 41
20260902143103 75 260 3.0 0.0 0.00 0.00 0.00 44 1019.0
20260902142054 75 250 5.0 0.0 0.00 0.00 0.00 38
20260902140212 75 200 7.0 0.0 0.00 0.00 0.00 41 1020.0
20260902133103 73 240 6.0 0.0 0.00 0.00 0.00 43 1020.0
20260902132052 75 250 7.0 0.0 0.00 0.00 0.00 38
20260902130103 75 270 5.0 0.0 0.00 0.00 0.00 44 1020.0
20260902123102 73 280 6.0 0.0 0.00 0.00 0.00 46 1020.0
20260902121853 73 220 7.0 0.0 0.00 0.00 0.00 43
20260902113103 73 0 2.0 0.0 0.00 0.00 0.00 49 1021.0
20260902112052 72 240 7.0 0.0 0.00 0.00 0.00 53
20260902110210 73 210 5.0 0.0 0.00 0.00 0.00 53 1021.0
20260902103102 72 260 6.0 0.0 0.00 0.00 0.00 53 1021.0
20260902102153 70 230 5.0 0.0 0.00 0.00 0.00 56
20260902093103 70 310 3.0 0.0 0.00 0.00 0.00 60 1021.0
20260902091851 68 310 2.0 0.0 0.00 0.00 0.00 60
20260902090104 70 0 2.0 0.0 0.00 0.00 0.00 60 1021.0
20260902083102 66 180 3.0 0.0 0.00 0.00 0.00 68 1021.0
20260902082051 64 200 2.0 0.0 0.00 0.00 0.00 67
20260902080104 66 0 1.0 0.0 0.00 0.00 0.00 68 1021.0
20260902073102 64 0 2.0 0.0 0.00 0.00 0.00 67 1022.0
20260902071951 63 210 5.0 0.0 0.00 0.00 0.00 72
20260902070211 63 210 3.0 0.0 0.00 0.00 0.00 72 1021.0
20260902063103 59 210 3.0 0.0 0.00 0.00 0.00 82 1021.0
20260902061852 59 210 5.0 0.0 0.00 0.00 0.00 77
20260902060104 59 220 6.0 0.0 0.00 0.00 0.00 77 1021.0
20260902053104 57 220 5.0 0.0 0.00 0.00 0.00 87 1021.0
20260902052038 55 200 5.0 0.0 0.00 0.00 0.00 82
20260902050104 54 210 3.0 0.0 0.00 0.00 0.00 87 1021.0
20260902043103 54 180 5.0 0.0 0.00 0.00 0.00 87 1021.0
20260902042154 54 180 5.0 0.0 0.00 0.00 0.00 87
20260902040209 54 180 5.0 0.0 0.00 0.00 0.00 87 1021.0
20260902033103 54 190 5.0 0.0 0.00 0.00 0.00 87 1021.0
20260902031851 54 180 5.0 0.0 0.00 0.00 0.00 87
20260902030211 55 190 6.0 0.0 0.00 0.00 0.00 87 1021.0
20260902023103 55 210 3.0 0.0 0.00 0.00 0.00 82 1021.0
20260902022051 57 230 5.0 0.0 0.00 0.00 0.00 76
20260902013103 55 210 6.0 0.0 0.00 0.00 0.00 87 1021.0
20260902012051 55 200 7.0 0.0 0.00 0.00 0.00 82
20260902003102 55 200 3.0 0.0 0.00 0.00 0.00 82 1021.0
20260902001852 57 190 7.0 0.0 0.00 0.00 0.00 76
20260902000211 57 190 6.0 0.0 0.00 0.00 0.00 82 1021.0
20260901233102 57 190 5.0 0.0 0.00 0.00 0.00 82 1021.0
20260901232038 59 180 7.0 0.0 0.00 0.00 0.00 77
20260901223102 59 190 6.0 0.0 0.00 0.00 0.00 77 1021.0
20260901222154 57 190 5.0 0.0 0.00 0.00 0.00 82
20260901220104 61 190 5.0 0.0 0.00 0.00 0.00 72 1021.0
20260901213102 61 190 3.0 0.0 0.00 0.00 0.00 72 1020.0
20260901211852 59 190 5.0 0.0 0.00 0.00 0.00 72
20260901210211 61 190 2.0 0.0 0.00 0.00 0.00 72 1020.0